Powrót do katalogu

SL-8 R/B

AktywnyLEO
NORAD 6993·ROCKET BODY·🇷🇺 Russia

Wystrzelony Dec 19, 1973 z Plesetsk Cosmodrome

Loading…

Następne Przeloty (najbliższe 24 godziny)

TLE

ŚwieżeSource: Space-Track

Epoka: Sep 14, 2026, 10:07 UTC

1 06993U 73104J   26257.42190797  .00000051  00000-0  54535-3 0  9994
2 06993  74.0310  65.0914 0091770  75.5447 309.1121 12.30305992368452

Śledź SL-8 R/B w czasie rzeczywistym z AllMySat

Download on the App Store